Location: La Pernelle
(49.6188°N, 1.2999°W)
Time: 12:15:56
(UTC+00:00)

Cosmos 1954 Rocket - Pass Details

Date: 25 October 2021
Orbit: 751 x 782 km, 74.0° (Epoch: 26 November)

Event Time Altitude Azimuth Distance (km) Brightness Sun altitude
Rises 21:08:38 0° 324° (NW) 3,242 8.0 -40.3°
Reaches altitude 10° 21:11:36 10° 308° (NW) 2,316 7.1 -40.7°
Enters shadow 21:13:27 16° 289° (WNW) 1,906 6.6 -41.0°
